QPF
0.00 0.00 0.00 0.00 0.00 0.00 0.00 0.00 0.00 0.00 0.00 0.00 0.00 0.00 0.00 0.00 0.00 0.00 0.00 0.00 0.00 0.00 0.00 0.00 0.00 0.00 0.00 0.00 0.00 0.00 0.00 0.00 0.00 0.00 0.00 0.00 0.00 0.00 0.00 0.00 0.01 0.02 0.04
0.00 0.00 0.00 0.00 0.00 0.00 0.00 0.00 0.00 0.00 0.00 0.00 0.00 0.00 0.00 0.00 0.00 0.00 0.00 0.00 0.00 0.00 0.00 0.00 0.00 0.00 0.00 0.00 0.00 0.00 0.00 0.00 0.00 0.00 0.00 0.00 0.00 0.00 0.00 0.00 0.00 0.01 0.01
0.00 0.00 0.00 0.00 0.00 0.00 0.00 0.00 0.00 0.00 0.00 0.00 0.00 0.00 0.00 0.00 0.00 0.00 0.00 0.00 0.00 0.00 0.00 0.00 0.00 0.00 0.00 0.00 0.00 0.00 0.00 0.00 0.00 0.00 0.00 0.00 0.00 0.00 0.00 0.00 0.00 0.00 0.01
0.00 0.00 0.00 0.00 0.00 0.00 0.00 0.00 0.00 0.00 0.00 0.00 0.00 0.00 0.00 0.00 0.00 0.00 0.00 0.00 0.00 0.00 0.00 0.00 0.00 0.00 0.00 0.00 0.00 0.00 0.00 0.00 0.00 0.00 0.00 0.00 0.00 0.00 0.00 0.00 0.00 0.00 0.00
0.00 0.00 0.00 0.01 0.00 0.00 0.00 0.00 0.01 0.01 0.00 0.00 0.00 0.00 0.00 0.00 0.00 0.00 0.00 0.00 0.00 0.00 0.00 0.00 0.00 0.00 0.00 0.00 0.00 0.00 0.00 0.00 0.00 0.00 0.00 0.00 0.00 0.00 0.00 0.00 0.00 0.00 0.00
0.00 0.00 0.00 0.01 0.00 0.00 0.01 0.02 0.02 0.02 0.01 0.01 0.00 0.00 0.00 0.00 0.00 0.00 0.00 0.00 0.00 0.00 0.00 0.00 0.00 0.00 0.01 0.01 0.00 0.00 0.00 0.00 0.00 0.00 0.00 0.00 0.00 0.00 0.00 0.00 0.00 0.00 0.00
0.00 0.00 0.00 0.01 0.01 0.02 0.02 0.01 0.01 0.01 0.01 0.00 0.00 0.00 0.00 0.00 0.00 0.00 0.00 0.00 0.00 0.00 0.00 0.00 0.00 0.01 0.01 0.01 0.02 0.02 0.02 0.01 0.01 0.00 0.00 0.00 0.00 0.00 0.00 0.00 0.00 0.00 0.00
0.00 0.00 0.01 0.00 0.01 0.01 0.00 0.01 0.01 0.00 0.00 0.00 0.00 0.00 0.00 0.00 0.00 0.00 0.00 0.00 0.00 0.00 0.00 0.00 0.00 0.00 0.01 0.01 0.02 0.03 0.04 0.02 0.01 0.01 0.00 0.00 0.00 0.00 0.00 0.00 0.00 0.00 0.00
0.00 0.00 0.00 0.00 0.00 0.00 0.00 0.01 0.01 0.01 0.01 0.00 0.00 0.01 0.01 0.00 0.00 0.00 0.00 0.00 0.00 0.00 0.00 0.00 0.00 0.00 0.00 0.00 0.00 0.01 0.02 0.02 0.01 0.00 0.00 0.00 0.00 0.00 0.00 0.00 0.00 0.00 0.00
0.00 0.00 0.00 0.00 0.00 0.00 0.00 0.00 0.01 0.01 0.01 0.00 0.00 0.00 0.00 0.00 0.01 0.00 0.00 0.00 0.00 0.00 0.00 0.00 0.00 0.00 0.00 0.00 0.00 0.00 0.00 0.01 0.01 0.01 0.01 0.01 0.00 0.00 0.00 0.00 0.00 0.00 0.00
0.00 0.00 0.00 0.00 0.01 0.01 0.01 0.01 0.01 0.01 0.01 0.01 0.01 0.00 0.00 0.00 0.01 0.01 0.00 0.00 0.00 0.00 0.00 0.00 0.00 0.00 0.00 0.00 0.00 0.00 0.00 0.01 0.02 0.02 0.01 0.01 0.01 0.01 0.00 0.00 0.00 0.00 0.00
0.00 0.00 0.00 0.00 0.01 0.01 0.01 0.02 0.02 0.02 0.02 0.03 0.02 0.02 0.02 0.02 0.02 0.02 0.01 0.01 0.00 0.00 0.00 0.00 0.00 0.00 0.00 0.00 0.00 0.01 0.02 0.03 0.03 0.02 0.01 0.01 0.01 0.00 0.00 0.00 0.00 0.00 0.00
0.00 0.00 0.00 0.00 0.00 0.01 0.01 0.01 0.02 0.02 0.02 0.03 0.03 0.03 0.03 0.03 0.03 0.03 0.03 0.02 0.01 0.01 0.00 0.00 0.00 0.00 0.00 0.01 0.03 0.04 0.06 0.06 0.03 0.02 0.01 0.01 0.00 0.00 0.00 0.00 0.00 0.00 0.00
0.00 0.00 0.00 0.00 0.01 0.01 0.01 0.02 0.02 0.02 0.03 0.04 0.03 0.04 0.05 0.04 0.04 0.05 0.05 0.05 0.04 0.02 0.01 0.01 0.00 0.01 0.03 0.05 0.07 0.07 0.14 0.08 0.03 0.02 0.01 0.00 0.00 0.00 0.00 0.00 0.00 0.00 0.00
0.00 0.00 0.00 0.01 0.01 0.01 0.02 0.03 0.03 0.03 0.04 0.04 0.04 0.04 0.04 0.04 0.05 0.05 0.05 0.06 0.07 0.06 0.04 0.02 0.02 0.03 0.07 0.09 0.13 0.18 0.20 0.12 0.05 0.02 0.01 0.00 0.00 0.00 0.00 0.00 0.00 0.00 0.00
0.01 0.01 0.01 0.02 0.02 0.02 0.03 0.04 0.04 0.04 0.04 0.04 0.04 0.04 0.04 0.04 0.05 0.04 0.05 0.05 0.07 0.08 0.07 0.03 0.01 0.03 0.05 0.07 0.13 0.20 0.20 0.13 0.06 0.03 0.01 0.01 0.00 0.00 0.00 0.00 0.00 0.00 0.01
0.02 0.02 0.02 0.03 0.03 0.03 0.04 0.05 0.04 0.04 0.03 0.03 0.03 0.04 0.04 0.04 0.04 0.04 0.04 0.05 0.06 0.09 0.09 0.04 0.02 0.02 0.04 0.07 0.13 0.19 0.20 0.13 0.09 0.07 0.04 0.02 0.01 0.01 0.01 0.01 0.02 0.03 0.04
0.03 0.03 0.03 0.03 0.03 0.04 0.04 0.04 0.03 0.02 0.03 0.03 0.03 0.04 0.03 0.03 0.03 0.04 0.04 0.05 0.06 0.07 0.10 0.07 0.03 0.03 0.05 0.10 0.17 0.21 0.22 0.17 0.13 0.14 0.10 0.08 0.06 0.07 0.09 0.08 0.08 0.09 0.12
0.04 0.04 0.04 0.05 0.05 0.04 0.04 0.03 0.02 0.01 0.02 0.02 0.03 0.04 0.04 0.04 0.04 0.04 0.05 0.05 0.06 0.07 0.08 0.08 0.04 0.04 0.07 0.13 0.20 0.21 0.19 0.17 0.15 0.15 0.13 0.12 0.13 0.23 0.35 0.34 0.27 0.21 0.23
0.04 0.04 0.04 0.04 0.04 0.03 0.02 0.01 0.00 0.01 0.02 0.02 0.03 0.04 0.05 0.05 0.06 0.06 0.05 0.05 0.06 0.07 0.08 0.08 0.07 0.07 0.09 0.15 0.17 0.18 0.17 0.15 0.14 0.11 0.11 0.15 0.29 0.47 0.70 0.82 0.69 0.47 0.37
0.03 0.03 0.03 0.03 0.03 0.02 0.00 0.00 0.00 0.00 0.01 0.02 0.03 0.05 0.06 0.06 0.06 0.05 0.03 0.04 0.06 0.08 0.08 0.08 0.08 0.09 0.10 0.13 0.15 0.13 0.13 0.13 0.09 0.06 0.07 0.18 0.48 0.70 0.85 0.99 1.04 0.82 0.65
0.03 0.03 0.02 0.02 0.02 0.01 0.00 0.00 0.00 0.00 0.01 0.03 0.05 0.06 0.05 0.05 0.03 0.02 0.02 0.04 0.06 0.07 0.07 0.07 0.07 0.07 0.07 0.08 0.09 0.11 0.11 0.09 0.06 0.03 0.04 0.17 0.46 0.78 0.95 1.01 1.07 0.93 0.79
0.03 0.03 0.03 0.02 0.02 0.01 0.00 0.00 0.00 0.00 0.02 0.05 0.07 0.07 0.05 0.02 0.01 0.01 0.02 0.04 0.06 0.08 0.07 0.06 0.06 0.06 0.06 0.05 0.07 0.10 0.09 0.06 0.04 0.02 0.03 0.12 0.33 0.62 0.81 0.87 0.86 0.76 0.67
0.04 0.04 0.03 0.02 0.02 0.01 0.00 0.00 0.00 0.00 0.02 0.03 0.05 0.06 0.04 0.01 0.01 0.02 0.04 0.05 0.05 0.06 0.06 0.05 0.06 0.07 0.06 0.05 0.06 0.06 0.04 0.04 0.03 0.01 0.02 0.08 0.21 0.40 0.54 0.58 0.56 0.49 0.43
0.04 0.03 0.02 0.01 0.02 0.01 0.00 0.00 0.00 0.00 0.01 0.01 0.02 0.03 0.02 0.00 0.02 0.05 0.07 0.09 0.09 0.08 0.06 0.06 0.10 0.13 0.11 0.09 0.07 0.05 0.04 0.03 0.02 0.01 0.02 0.06 0.13 0.23 0.30 0.31 0.28 0.23 0.19
0.03 0.02 0.01 0.01 0.01 0.01 0.00 0.00 0.00 0.00 0.00 0.00 0.01 0.02 0.01 0.01 0.03 0.06 0.10 0.12 0.13 0.13 0.09 0.07 0.12 0.16 0.13 0.13 0.14 0.12 0.08 0.05 0.02 0.02 0.03 0.06 0.10 0.12 0.16 0.14 0.11 0.08 0.06
MSLP
1015.00 1015.16 1015.25 1015.31 1015.34 1015.37 1015.40 1015.42 1015.42 1015.37 1015.26 1015.09 1014.88 1014.64 1014.42 1014.25 1014.15 1014.14 1014.22 1014.35 1014.51 1014.67 1014.81 1014.90 1014.95 1014.96 1014.95 1014.93 1014.91 1014.89 1014.86 1014.82 1014.77 1014.69 1014.60 1014.48 1014.37 1014.26 1014.17 1014.10 1014.06 1014.05 1014.09
1015.02 1015.18 1015.27 1015.32 1015.33 1015.34 1015.34 1015.35 1015.35 1015.32 1015.24 1015.12 1014.94 1014.73 1014.51 1014.30 1014.13 1014.02 1013.97 1013.98 1014.03 1014.10 1014.17 1014.24 1014.30 1014.34 1014.39 1014.42 1014.46 1014.50 1014.52 1014.54 1014.53 1014.50 1014.44 1014.36 1014.26 1014.15 1014.03 1013.92 1013.82 1013.74 1013.69
1015.09 1015.25 1015.35 1015.40 1015.41 1015.40 1015.40 1015.40 1015.40 1015.39 1015.35 1015.26 1015.11 1014.92 1014.68 1014.42 1014.17 1013.94 1013.75 1013.61 1013.52 1013.48 1013.48 1013.51 1013.57 1013.64 1013.72 1013.81 1013.90 1013.98 1014.06 1014.13 1014.17 1014.19 1014.18 1014.15 1014.08 1013.99 1013.87 1013.74 1013.59 1013.46 1013.35
1015.16 1015.35 1015.47 1015.53 1015.54 1015.54 1015.53 1015.53 1015.54 1015.54 1015.52 1015.45 1015.32 1015.12 1014.86 1014.54 1014.19 1013.84 1013.51 1013.22 1013.00 1012.85 1012.77 1012.75 1012.78 1012.86 1012.96 1013.08 1013.21 1013.33 1013.45 1013.55 1013.64 1013.70 1013.75 1013.77 1013.75 1013.70 1013.60 1013.47 1013.31 1013.15 1012.99
1015.25 1015.45 1015.59 1015.67 1015.71 1015.72 1015.71 1015.71 1015.72 1015.72 1015.70 1015.63 1015.49 1015.27 1014.97 1014.58 1014.14 1013.68 1013.22 1012.81 1012.46 1012.21 1012.04 1011.97 1011.98 1012.05 1012.15 1012.28 1012.41 1012.54 1012.67 1012.80 1012.91 1013.02 1013.11 1013.19 1013.23 1013.22 1013.17 1013.07 1012.92 1012.74 1012.56
1015.34 1015.55 1015.72 1015.82 1015.88 1015.90 1015.90 1015.90 1015.89 1015.88 1015.84 1015.75 1015.59 1015.34 1014.99 1014.54 1014.02 1013.46 1012.90 1012.38 1011.94 1011.60 1011.37 1011.24 1011.21 1011.24 1011.33 1011.43 1011.55 1011.66 1011.78 1011.91 1012.04 1012.17 1012.31 1012.43 1012.53 1012.59 1012.59 1012.53 1012.41 1012.24 1012.05
1015.46 1015.67 1015.84 1015.97 1016.04 1016.07 1016.08 1016.06 1016.04 1016.00 1015.94 1015.82 1015.62 1015.33 1014.93 1014.42 1013.85 1013.22 1012.59 1012.00 1011.49 1011.09 1010.79 1010.62 1010.53 1010.52 1010.55 1010.61 1010.68 1010.76 1010.86 1010.96 1011.09 1011.25 1011.42 1011.59 1011.75 1011.87 1011.93 1011.92 1011.83 1011.68 1011.50
1015.63 1015.82 1015.99 1016.11 1016.19 1016.23 1016.23 1016.21 1016.17 1016.10 1016.00 1015.84 1015.60 1015.27 1014.83 1014.30 1013.68 1013.02 1012.36 1011.73 1011.18 1010.73 1010.39 1010.16 1010.02 1009.94 1009.91 1009.90 1009.91 1009.93 1009.98 1010.06 1010.19 1010.36 1010.56 1010.78 1010.99 1011.17 1011.28 1011.32 1011.27 1011.15 1010.97
1015.88 1016.02 1016.16 1016.27 1016.34 1016.37 1016.37 1016.34 1016.28 1016.18 1016.05 1015.86 1015.59 1015.23 1014.77 1014.22 1013.60 1012.94 1012.27 1011.63 1011.07 1010.59 1010.21 1009.92 1009.71 1009.56 1009.44 1009.36 1009.29 1009.26 1009.27 1009.32 1009.44 1009.62 1009.85 1010.11 1010.36 1010.58 1010.74 1010.81 1010.79 1010.69 1010.51
1016.20 1016.28 1016.36 1016.44 1016.49 1016.50 1016.49 1016.45 1016.38 1016.26 1016.11 1015.89 1015.61 1015.23 1014.78 1014.24 1013.63 1012.99 1012.35 1011.74 1011.18 1010.68 1010.27 1009.92 1009.64 1009.40 1009.20 1009.03 1008.90 1008.81 1008.78 1008.82 1008.94 1009.13 1009.37 1009.65 1009.92 1010.16 1010.33 1010.41 1010.40 1010.30 1010.12
1016.57 1016.56 1016.58 1016.60 1016.62 1016.61 1016.59 1016.54 1016.46 1016.33 1016.16 1015.94 1015.65 1015.28 1014.84 1014.33 1013.77 1013.18 1012.59 1012.01 1011.46 1010.97 1010.52 1010.12 1009.77 1009.45 1009.16 1008.92 1008.72 1008.59 1008.53 1008.56 1008.68 1008.88 1009.12 1009.39 1009.65 1009.86 1010.01 1010.06 1010.03 1009.91 1009.73
1016.93 1016.83 1016.77 1016.74 1016.71 1016.68 1016.64 1016.58 1016.49 1016.36 1016.19 1015.96 1015.67 1015.33 1014.92 1014.46 1013.96 1013.43 1012.90 1012.37 1011.85 1011.36 1010.89 1010.45 1010.03 1009.64 1009.28 1008.97 1008.73 1008.57 1008.50 1008.53 1008.65 1008.83 1009.05 1009.27 1009.47 1009.61 1009.67 1009.65 1009.55 1009.38 1009.18
1017.23 1017.05 1016.92 1016.82 1016.75 1016.69 1016.63 1016.56 1016.46 1016.32 1016.14 1015.91 1015.63 1015.31 1014.94 1014.53 1014.10 1013.65 1013.18 1012.71 1012.23 1011.76 1011.28 1010.80 1010.33 1009.88 1009.48 1009.13 1008.87 1008.70 1008.63 1008.65 1008.75 1008.90 1009.06 1009.19 1009.26 1009.26 1009.18 1009.02 1008.81 1008.57 1008.34
1017.44 1017.19 1016.99 1016.84 1016.73 1016.64 1016.56 1016.46 1016.34 1016.18 1015.99 1015.75 1015.47 1015.16 1014.83 1014.47 1014.10 1013.72 1013.33 1012.92 1012.49 1012.03 1011.56 1011.06 1010.57 1010.10 1009.67 1009.31 1009.05 1008.89 1008.82 1008.84 1008.91 1008.99 1009.04 1009.02 1008.91 1008.71 1008.42 1008.07 1007.71 1007.37 1007.10
1017.55 1017.25 1017.01 1016.82 1016.68 1016.56 1016.44 1016.31 1016.16 1015.97 1015.74 1015.47 1015.18 1014.86 1014.55 1014.23 1013.91 1013.59 1013.26 1012.91 1012.53 1012.10 1011.64 1011.15 1010.66 1010.19 1009.77 1009.43 1009.19 1009.06 1009.01 1009.02 1009.05 1009.04 1008.94 1008.73 1008.39 1007.93 1007.38 1006.80 1006.25 1005.79 1005.47
1017.57 1017.26 1017.00 1016.79 1016.62 1016.47 1016.33 1016.16 1015.95 1015.70 1015.41 1015.09 1014.76 1014.42 1014.10 1013.79 1013.51 1013.23 1012.95 1012.65 1012.30 1011.91 1011.48 1011.02 1010.54 1010.10 1009.72 1009.43 1009.24 1009.15 1009.14 1009.15 1009.13 1009.01 1008.76 1008.33 1007.73 1006.99 1006.16 1005.33 1004.57 1003.98 1003.61
1017.55 1017.24 1016.99 1016.79 1016.61 1016.45 1016.26 1016.04 1015.77 1015.45 1015.08 1014.68 1014.28 1013.89 1013.54 1013.22 1012.93 1012.67 1012.41 1012.14 1011.82 1011.46 1011.06 1010.63 1010.20 1009.82 1009.50 1009.28 1009.18 1009.16 1009.19 1009.21 1009.15 1008.95 1008.54 1007.91 1007.07 1006.06 1004.97 1003.89 1002.94 1002.22 1001.81
1017.52 1017.25 1017.03 1016.84 1016.68 1016.50 1016.28 1016.01 1015.67 1015.26 1014.80 1014.31 1013.82 1013.36 1012.94 1012.57 1012.26 1011.98 1011.72 1011.45 1011.14 1010.80 1010.43 1010.04 1009.66 1009.34 1009.12 1009.00 1008.99 1009.07 1009.17 1009.24 1009.18 1008.92 1008.41 1007.63 1006.59 1005.37 1004.06 1002.78 1001.68 1000.86 1000.42
1017.51 1017.29 1017.12 1016.97 1016.82 1016.64 1016.40 1016.07 1015.66 1015.17 1014.61 1014.02 1013.44 1012.88 1012.38 1011.95 1011.58 1011.26 1010.96 1010.66 1010.35 1010.00 1009.64 1009.29 1008.97 1008.73 1008.61 1008.61 1008.72 1008.92 1009.13 1009.28 1009.27 1009.02 1008.47 1007.62 1006.48 1005.13 1003.69 1002.30 1001.10 1000.23 999.77
1017.51 1017.35 1017.23 1017.13 1017.01 1016.83 1016.57 1016.21 1015.73 1015.17 1014.52 1013.84 1013.16 1012.52 1011.93 1011.41 1010.96 1010.57 1010.21 1009.86 1009.51 1009.15 1008.79 1008.46 1008.20 1008.05 1008.03 1008.15 1008.41 1008.74 1009.10 1009.37 1009.46 1009.28 1008.79 1007.96 1006.83 1005.48 1004.02 1002.61 1001.40 1000.52 1000.08
1017.51 1017.40 1017.34 1017.28 1017.19 1017.02 1016.75 1016.36 1015.85 1015.22 1014.51 1013.75 1012.99 1012.26 1011.58 1010.98 1010.44 1009.96 1009.52 1009.11 1008.70 1008.31 1007.94 1007.64 1007.43 1007.36 1007.44 1007.70 1008.10 1008.59 1009.10 1009.53 1009.77 1009.74 1009.38 1008.68 1007.66 1006.42 1005.06 1003.73 1002.59 1001.77 1001.37
1017.46 1017.41 1017.39 1017.37 1017.30 1017.15 1016.88 1016.47 1015.94 1015.28 1014.52 1013.72 1012.90 1012.09 1011.34 1010.65 1010.02 1009.45 1008.93 1008.44 1007.97 1007.54 1007.17 1006.89 1006.73 1006.73 1006.93 1007.30 1007.84 1008.49 1009.16 1009.76 1010.18 1010.34 1010.18 1009.69 1008.88 1007.83 1006.67 1005.51 1004.52 1003.81 1003.47
1017.36 1017.34 1017.35 1017.36 1017.31 1017.18 1016.91 1016.51 1015.97 1015.30 1014.52 1013.69 1012.83 1011.98 1011.16 1010.39 1009.69 1009.04 1008.43 1007.87 1007.36 1006.91 1006.53 1006.28 1006.17 1006.25 1006.54 1007.03 1007.70 1008.47 1009.29 1010.06 1010.66 1011.02 1011.09 1010.84 1010.29 1009.51 1008.61 1007.69 1006.89 1006.33 1006.08
1017.19 1017.19 1017.23 1017.26 1017.23 1017.10 1016.86 1016.46 1015.93 1015.26 1014.49 1013.64 1012.76 1011.88 1011.01 1010.19 1009.42 1008.70 1008.04 1007.44 1006.90 1006.44 1006.08 1005.87 1005.82 1005.98 1006.36 1006.94 1007.70 1008.58 1009.51 1010.40 1011.15 1011.69 1011.97 1011.96 1011.68 1011.19 1010.57 1009.91 1009.34 1008.95 1008.80
1016.99 1017.02 1017.08 1017.12 1017.11 1016.99 1016.75 1016.38 1015.86 1015.20 1014.43 1013.59 1012.70 1011.79 1010.90 1010.04 1009.22 1008.46 1007.77 1007.14 1006.60 1006.17 1005.86 1005.71 1005.74 1005.98 1006.43 1007.08 1007.90 1008.83 1009.82 1010.77 1011.61 1012.27 1012.70 1012.90 1012.86 1012.62 1012.27 1011.88 1011.53 1011.30 1011.26
1016.84 1016.90 1016.97 1017.02 1017.02 1016.91 1016.68 1016.31 1015.80 1015.16 1014.40 1013.56 1012.66 1011.74 1010.82 1009.94 1009.10 1008.32 1007.62 1007.01 1006.50 1006.13 1005.89 1005.82 1005.94 1006.27 1006.78 1007.47 1008.31 1009.25 1010.22 1011.17 1012.03 1012.73 1013.25 1013.57 1013.70 1013.68 1013.55 1013.38 1013.23 1013.16 1013.22
Thickness
5711 5709 5705 5702 5700 5699 5697 5694 5694 5693 5691 5689 5690 5690 5690 5689 5688 5687 5685 5683 5684 5683 5682 5681 5680 5679 5679 5679 5678 5679 5680 5681 5682 5683 5685 5687 5689 5692 5694 5697 5698 5699 5701
5703 5701 5697 5694 5692 5691 5687 5684 5684 5682 5681 5680 5680 5679 5679 5678 5678 5677 5676 5675 5674 5674 5673 5673 5673 5672 5671 5671 5672 5672 5672 5673 5674 5675 5677 5679 5681 5684 5687 5691 5693 5695 5697
5694 5691 5689 5687 5685 5683 5680 5677 5674 5673 5670 5669 5669 5669 5668 5668 5667 5666 5666 5666 5664 5663 5663 5663 5662 5662 5662 5662 5663 5663 5664 5665 5666 5667 5668 5670 5672 5675 5679 5683 5686 5689 5692
5686 5682 5680 5678 5676 5674 5671 5668 5665 5661 5658 5657 5656 5656 5655 5654 5653 5653 5653 5653 5653 5653 5652 5650 5650 5650 5651 5652 5654 5654 5655 5655 5656 5658 5659 5660 5663 5666 5669 5673 5677 5682 5686
5678 5673 5670 5668 5665 5663 5660 5656 5651 5646 5643 5641 5640 5641 5642 5642 5641 5641 5640 5639 5639 5639 5639 5638 5637 5638 5638 5639 5641 5643 5644 5644 5645 5646 5648 5650 5653 5656 5660 5663 5668 5673 5677
5668 5663 5658 5655 5653 5650 5646 5641 5636 5634 5630 5626 5625 5627 5627 5627 5628 5627 5627 5628 5628 5627 5626 5626 5625 5623 5621 5622 5624 5628 5630 5631 5632 5632 5634 5637 5641 5645 5649 5653 5657 5662 5668
5656 5650 5645 5640 5638 5634 5630 5626 5623 5619 5615 5612 5608 5608 5611 5612 5612 5612 5612 5612 5612 5612 5610 5609 5608 5607 5605 5604 5606 5609 5611 5613 5615 5617 5619 5622 5627 5632 5637 5641 5646 5652 5658
5643 5639 5633 5627 5623 5619 5616 5612 5607 5601 5598 5597 5590 5585 5585 5590 5593 5596 5595 5594 5593 5590 5588 5587 5587 5587 5589 5590 5590 5591 5593 5594 5596 5599 5602 5607 5611 5617 5622 5628 5634 5640 5646
5630 5625 5619 5614 5609 5604 5600 5596 5590 5584 5580 5578 5573 5564 5560 5563 5569 5573 5573 5572 5570 5568 5568 5568 5569 5570 5572 5575 5577 5579 5578 5578 5580 5582 5584 5589 5594 5600 5606 5613 5620 5628 5635
5615 5610 5605 5599 5594 5589 5583 5579 5576 5567 5561 5558 5556 5551 5546 5543 5540 5546 5557 5554 5551 5551 5552 5554 5555 5557 5559 5560 5562 5564 5564 5564 5565 5566 5568 5571 5576 5582 5588 5596 5605 5614 5623
5601 5595 5589 5583 5576 5570 5565 5560 5555 5549 5542 5537 5534 5532 5529 5526 5524 5522 5535 5537 5536 5538 5539 5539 5539 5542 5543 5543 5544 5545 5546 5548 5550 5551 5552 5553 5556 5562 5569 5577 5588 5598 5609
5585 5578 5571 5563 5557 5551 5545 5540 5535 5530 5525 5520 5516 5513 5510 5508 5508 5507 5511 5515 5517 5520 5521 5521 5522 5524 5525 5525 5525 5525 5527 5530 5532 5534 5536 5536 5538 5542 5549 5558 5569 5582 5595
5566 5559 5550 5543 5536 5530 5524 5520 5516 5513 5509 5505 5502 5499 5497 5494 5493 5492 5492 5496 5498 5502 5503 5506 5507 5508 5509 5508 5508 5508 5510 5513 5516 5518 5519 5520 5522 5527 5533 5541 5552 5566 5580
5545 5537 5529 5521 5514 5509 5505 5502 5500 5498 5497 5493 5491 5489 5487 5486 5484 5482 5481 5480 5483 5488 5490 5493 5494 5495 5494 5494 5494 5495 5496 5499 5501 5503 5504 5506 5509 5513 5520 5528 5539 5551 5566
5523 5516 5508 5502 5498 5494 5492 5490 5489 5488 5486 5485 5483 5481 5479 5479 5477 5476 5474 5472 5470 5475 5481 5483 5484 5485 5484 5484 5484 5484 5485 5487 5490 5491 5492 5494 5497 5502 5509 5518 5529 5541 5555
5506 5500 5495 5491 5488 5486 5484 5483 5482 5480 5479 5477 5476 5475 5474 5472 5471 5470 5469 5468 5466 5466 5472 5476 5476 5477 5476 5476 5477 5477 5477 5479 5480 5481 5483 5485 5489 5495 5503 5513 5525 5537 5549
5497 5493 5489 5485 5483 5481 5479 5477 5475 5473 5472 5470 5469 5469 5468 5467 5466 5466 5465 5464 5463 5462 5466 5471 5471 5472 5471 5471 5472 5473 5473 5473 5474 5475 5477 5480 5485 5492 5502 5514 5528 5540 5550
5491 5487 5484 5481 5479 5477 5473 5469 5466 5464 5463 5463 5463 5463 5464 5464 5464 5463 5462 5462 5462 5462 5462 5466 5468 5468 5468 5469 5469 5470 5470 5469 5469 5470 5472 5476 5481 5490 5503 5520 5538 5550 5555
5486 5483 5479 5475 5473 5469 5463 5458 5454 5453 5453 5455 5458 5459 5461 5462 5462 5462 5462 5462 5462 5463 5462 5463 5466 5466 5467 5468 5467 5466 5465 5464 5465 5466 5468 5471 5476 5486 5502 5525 5547 5558 5559
5481 5477 5473 5468 5464 5458 5450 5445 5443 5443 5446 5449 5453 5456 5459 5461 5462 5462 5462 5463 5463 5463 5463 5463 5465 5466 5466 5467 5466 5464 5461 5459 5459 5460 5461 5464 5469 5479 5495 5518 5541 5552 5555
5476 5470 5465 5460 5453 5446 5436 5432 5432 5435 5438 5444 5450 5454 5457 5460 5461 5460 5461 5462 5462 5463 5464 5465 5466 5467 5467 5467 5465 5462 5459 5456 5455 5455 5455 5456 5459 5467 5480 5500 5522 5536 5543
5468 5462 5456 5449 5442 5433 5423 5420 5421 5424 5431 5439 5445 5449 5453 5457 5457 5458 5459 5461 5463 5466 5468 5468 5469 5470 5471 5469 5464 5462 5459 5459 5456 5450 5450 5447 5450 5456 5465 5480 5497 5515 5524
5461 5453 5447 5440 5432 5423 5415 5412 5411 5416 5424 5431 5436 5442 5447 5451 5452 5454 5459 5464 5469 5473 5474 5474 5473 5474 5473 5470 5465 5462 5459 5455 5450 5446 5447 5442 5442 5447 5454 5465 5480 5493 5503
5454 5446 5440 5432 5424 5416 5409 5405 5404 5409 5417 5421 5427 5434 5439 5443 5447 5449 5457 5466 5473 5479 5482 5480 5478 5477 5474 5470 5467 5461 5456 5451 5447 5443 5443 5438 5437 5441 5448 5457 5466 5477 5486
5448 5441 5434 5426 5419 5411 5404 5399 5398 5403 5408 5413 5420 5427 5432 5436 5441 5446 5456 5465 5474 5481 5483 5482 5479 5476 5472 5468 5465 5460 5455 5453 5446 5439 5438 5436 5435 5439 5444 5450 5457 5466 5475
5443 5435 5428 5420 5412 5405 5398 5394 5392 5397 5401 5406 5413 5420 5426 5430 5437 5444 5453 5463 5471 5477 5480 5479 5475 5470 5466 5462 5460 5460 5458 5455 5449 5440 5435 5436 5438 5443 5444 5445 5452 5459 5467